Weather History for KAIA - September, 2013

Change the Weather History Date:

Sunday, September 22, 2013

  Actual Average Record
Temperature  
Mean Temperature 69 °F 56 °F  
Max Temperature 86 °F 73 °F 93 °F (1939)
Min Temperature 51 °F 40 °F 26 °F (2002)
Degree Days  
Heating Degree Days 0 9  
Month to date heating degree days 44 119  
Since 1 July heating degree days 52 156  
Cooling Degree Days 4 1  
Month to date cooling degree days 136 38  
Year to date cooling degree days 795 561  
Growing Degree Days 18 (Base 50)    
Moisture  
Dew Point 53 °F    
Average Humidity 60    
Maximum Humidity 93    
Minimum Humidity 27    
Precipitation  
Precipitation 0.29 in 0.05 in 0.64 in (1948)
Month to date precipitation 1.06 1.07  
Year to date precipitation 10.12 13.48  
Sea Level Pressure  
Sea Level Pressure 29.56 in    
Wind  
Wind Speed 9 mph (SSE)    
Max Wind Speed 37 mph    
Max Gust Speed 48 mph    
Visibility 10 miles    
Events Rain , Thunderstorm    
T = Trace of Precipitation, MM = Missing Value Source: NWS Daily Summary

Daily Weather History Graph

Daily Weather History Graph

Search for Another Location

Airport or City:

Trip Planner

Search our weather history database for the weather conditions in past years. The results will help you decide how hot, cold, wet, or windy it might be!

Date:

Astronomy

Sep. 22, 2013 Rise Set
Actual Time 6:38 AM MDT 6:47 PM MDT
Civil Twilight 6:11 AM MDT 7:15 PM MDT
Nautical Twilight 5:38 AM MDT 7:48 PM MDT
Astronomical Twilight 5:04 AM MDT 8:21 PM MDT
Moon 8:35 PM MDT (9/22) 10:05 AM MDT (9/22)
Length of Visible Light 13h 04m
Length of Day
12h 09m
Waning Gibbous, 88% of the Moon is Illuminated
Sep 22
Waning Gibbous
Sep 26
Last Quarter
Oct 4
New
Oct 11
First Quarter
Oct 18
Full

Hourly Weather History & Observations

Time (MDT) Temp. Heat Index Dew Point Humidity Pressure Visibility Wind Dir Wind Speed Gust Speed Precip Events Conditions
12:53 AM 57.0 °F - 50.0 °F 77% 29.62 in 10.0 mi SSE 6.9 mph - N/A   Clear
1:53 AM 57.0 °F - 50.0 °F 77% 29.62 in 10.0 mi SSE 3.5 mph - N/A   Clear
2:53 AM 57.0 °F - 51.1 °F 81% 29.60 in 10.0 mi SSE 4.6 mph - N/A   Clear
3:53 AM 55.9 °F - 50.0 °F 80% 29.61 in 10.0 mi Calm Calm - N/A   Clear
4:53 AM 52.0 °F - 48.9 °F 89% 29.61 in 10.0 mi SE 8.1 mph - N/A   Clear
5:53 AM 51.1 °F - 48.0 °F 89% 29.61 in 10.0 mi East 3.5 mph - N/A   Partly Cloudy
6:53 AM 52.0 °F - 48.9 °F 89% 29.64 in 10.0 mi SSE 3.5 mph - N/A   Clear
7:53 AM 57.9 °F - 53.1 °F 84% 29.62 in 10.0 mi SE 8.1 mph - N/A   Clear
8:53 AM 66.0 °F - 54.0 °F 65% 29.62 in 10.0 mi SSE 10.4 mph - N/A   Clear
9:53 AM 71.1 °F - 55.0 °F 57% 29.60 in 10.0 mi SSE 9.2 mph - N/A   Clear
10:53 AM 78.1 °F - 53.1 °F 42% 29.58 in 10.0 mi South 10.4 mph - N/A   Clear
11:53 AM 82.0 °F - 51.1 °F 34% 29.56 in 10.0 mi South 10.4 mph - N/A   Clear
12:53 PM 82.9 °F - 51.1 °F 33% 29.53 in 10.0 mi SSE 9.2 mph - N/A   Clear
1:53 PM 84.0 °F - 52.0 °F 33% 29.49 in 10.0 mi SSE 10.4 mph - N/A   Clear
2:53 PM 86.0 °F - 50.0 °F 29% 29.47 in 10.0 mi South 11.5 mph - N/A   Clear
3:53 PM 84.9 °F 83.2 °F 53.1 °F 33% 29.46 in 10.0 mi SSE 19.6 mph - N/A   Clear
4:53 PM 84.9 °F - 46.9 °F 27% 29.46 in 10.0 mi SSE 15.0 mph - N/A   Clear
5:53 PM 80.1 °F 80.0 °F 54.0 °F 40% 29.45 in 10.0 mi SE 15.0 mph - N/A   Clear
6:46 PM 78.8 °F - 53.6 °F 42% 29.55 in 10.0 mi SE 16.1 mph 25.3 mph N/A Thunderstorm Partly Cloudy
6:53 PM 78.1 °F - 54.0 °F 43% 29.46 in 10.0 mi SE 12.7 mph 25.3 mph N/A Thunderstorm Mostly Cloudy
7:05 PM 62.6 °F - 51.8 °F 68% 29.60 in 9.0 mi WNW 34.5 mph 48.3 mph N/A Thunderstorm Unknown
7:17 PM 60.8 °F - 53.6 °F 77% 29.61 in 9.0 mi WNW 29.9 mph 43.7 mph 0.00 in Rain , Thunderstorm Light Thunderstorms and Rain
7:53 PM 59.0 °F - 55.0 °F 87% 29.52 in 9.0 mi NW 13.8 mph 25.3 mph 0.05 in Rain , Thunderstorm Light Thunderstorms and Rain
8:53 PM 60.1 °F - 57.0 °F 90% 29.52 in 10.0 mi NNW 13.8 mph - 0.12 in Rain Light Rain
9:00 PM 60.8 °F - 55.4 °F 82% 29.62 in 10.0 mi NNW 9.2 mph - 0.00 in Rain , Thunderstorm Light Rain
9:22 PM 59.0 °F - 57.2 °F 94% 29.63 in 6.0 mi North 8.1 mph - 0.05 in Rain Rain
9:53 PM 59.0 °F - 57.0 °F 93% 29.53 in 6.0 mi NNE 9.2 mph - 0.09 in Rain Rain
10:53 PM 57.9 °F - 55.9 °F 93% 29.49 in 10.0 mi NE 8.1 mph - 0.03 in   Clear
11:53 PM 57.0 °F - 55.9 °F 96% 29.48 in 10.0 mi WSW 8.1 mph - N/A   Partly Cloudy